Change the Weather History Date:

Tuesday, November 29, 2011

  Actual Average Record
Temperature  
Mean Temperature 39 °F 34 °F  
Max Temperature 49 °F 47 °F 79 °F (2014)
Min Temperature 29 °F 22 °F -1 °F (1952)
Degree Days  
Heating Degree Days 27    
Moisture  
Dew Point 22 °F    
Average Humidity 57    
Maximum Humidity 85    
Minimum Humidity 29    
Precipitation  
Precipitation 0.00 in 0.02 in 0.38 in (1997)
Month to date precipitation 0.55 0.93  
Year to date precipitation 19.62 22.21  
Sea Level Pressure  
Sea Level Pressure 30.35 in    
Wind  
Wind Speed 8 mph (NW)    
Max Wind Speed 15 mph    
Max Gust Speed -    
Visibility 10 miles    
Events      
T = Trace of Precipitation, MM = Missing Value Source: NWS Daily Summary

Daily Weather History Graph

Daily Weather History Graph

Search for Another Location

Airport or City:

Trip Planner

Search our weather history database for the weather conditions in past years. The results will help you decide how hot, cold, wet, or windy it might be!

Date:

Astronomy

Nov. 29, 2011 Rise Set
Actual Time 7:37 AM CST 5:16 PM CST
Civil Twilight 7:08 AM CST 5:46 PM CST
Nautical Twilight 6:35 AM CST 6:19 PM CST
Astronomical Twilight 6:02 AM CST 6:51 PM CST
Moon 11:26 AM CST (11/29) 10:11 PM CST (11/29)
Length of Visible Light 10h 38m
Length of Day
9h 38m
Waxing Crescent, 24% of the Moon is Illuminated
Nov 29
Waxing Crescent
Dec 2
First Quarter
Dec 10
Full
Dec 17
Last Quarter
Dec 24
New

Hourly Weather History & Observations

Time (CST) Temp. Windchill Dew Point Humidity Pressure Visibility Wind Dir Wind Speed Gust Speed Precip Events Conditions
1:53 AM 39.9 °F 32.5 °F 28.0 °F 63% 30.31 in 10.0 mi North 12.7 mph - N/A   Clear
2:53 AM 36.0 °F 28.0 °F 28.0 °F 73% 30.33 in 10.0 mi NNW 11.5 mph - N/A   Clear
3:53 AM 34.0 °F 25.0 °F 27.0 °F 75% 30.35 in 10.0 mi North 12.7 mph - N/A   Clear
4:53 AM 32.0 °F 21.6 °F 26.1 °F 79% 30.38 in 10.0 mi North 15.0 mph - N/A   Clear
5:53 AM 32.0 °F 21.6 °F 27.0 °F 82% 30.39 in 10.0 mi North 15.0 mph - N/A   Clear
6:53 AM 30.0 °F 20.5 °F 25.0 °F 82% 30.41 in 10.0 mi NNW 11.5 mph - N/A   Clear
7:53 AM 28.9 °F 25.2 °F 25.0 °F 85% 30.43 in 10.0 mi Variable 3.5 mph - N/A   Clear
8:53 AM 30.9 °F 24.3 °F 25.0 °F 79% 30.44 in 10.0 mi NW 6.9 mph - N/A   Partly Cloudy
9:53 AM 36.0 °F 30.3 °F 28.0 °F 73% 30.44 in 10.0 mi North 6.9 mph - N/A   Overcast
10:53 AM 41.0 °F 37.1 °F 28.9 °F 62% 30.43 in 10.0 mi North 5.8 mph - N/A   Clear
11:53 AM 44.1 °F 41.5 °F 27.0 °F 51% 30.40 in 10.0 mi Variable 4.6 mph - N/A   Clear
12:53 PM 46.9 °F - 21.9 °F 37% 30.37 in 10.0 mi North 3.5 mph - N/A   Clear
1:53 PM 46.9 °F - 19.9 °F 34% 30.35 in 10.0 mi NNW 3.5 mph - N/A   Clear
2:53 PM 48.0 °F - 19.0 °F 32% 30.33 in 10.0 mi Variable 3.5 mph - N/A   Clear
3:53 PM 48.0 °F - 17.1 °F 29% 30.32 in 10.0 mi Calm Calm - N/A   Clear
4:53 PM 45.0 °F - 19.0 °F 36% 30.32 in 6.0 mi Calm Calm - N/A   Haze
5:53 PM 37.9 °F - 17.1 °F 43% 30.32 in 10.0 mi Calm Calm - N/A   Clear
6:53 PM 34.0 °F 31.0 °F 16.0 °F 48% 30.32 in 10.0 mi SSW 3.5 mph - N/A   Clear
7:53 PM 32.0 °F 26.4 °F 15.1 °F 50% 30.30 in 10.0 mi SW 5.8 mph - N/A   Clear
8:53 PM 32.0 °F 27.5 °F 15.1 °F 50% 30.29 in 10.0 mi SW 4.6 mph - N/A   Clear
9:53 PM 32.0 °F 25.6 °F 15.1 °F 50% 30.27 in 10.0 mi SSW 6.9 mph - N/A   Clear
10:53 PM 33.1 °F - 16.0 °F 50% 30.25 in 10.0 mi Calm Calm - N/A   Clear
11:53 PM 33.1 °F 26.1 °F 17.1 °F 52% 30.22 in 10.0 mi SW 8.1 mph - N/A   Clear